Location: Fort Worth, Tx
(32.7431°N, 97.3695°W)
Time: 11:25:56
(UTC-04:00)

Tiros 1 - Pass Details

Date: 23 February 2024
Orbit: 625 x 657 km, 48.4° (Epoch: 24 April)

Event Time Altitude Azimuth Distance (km) Brightness Sun altitude
Exits shadow 06:58:41 21° 249° (WSW) 1,439 8.4 -14.6°
Maximum altitude 06:59:43 23° 230° (SW) 1,372 8.4 -14.4°
Drops below altitude 10° 07:03:20 10° 178° (S) 2,013 9.7 -13.6°
Sets 07:06:02 0° 164° (SSE) 2,911 10.8 -13.0°
